Regional Weather Roundup
Issued by NWS

Home | Current Version | Previous Version | Graphics & Text | Print | Product List | Glossary On
Versions: 1 2 3 4 5 6 7 8 9 10 11 12 13 14 15 16 17 18 19 20 21 22 23 24 25 26 27 28 29 30 31 32 33 34 35 36 37 38 39 40 41 42 43 44 45 46 47 48 49 50
000
ASUS45 KBOI 292310
RWRID

IDAHO REGIONAL WEATHER ROUNDUP
NATIONAL WEATHER SERVICE BOISE ID
500 PM MDT MON JUN 29 2015

NOTE: "FAIR" INDICATES FEW OR NO CLOUDS BELOW 12000 FEET
WITH NO SIGNIFICANT WEATHER AND/OR OBSTRUCTIONS TO VISIBILITY

IDZ012-014-300000-
SOUTHWEST IDAHO


CITY           SKY/WX    TMP DP  RH WIND       PRES   REMARKS
BOISE          PTSUNNY   99  53  21 NW12      29.90F HX  96
CALDWELL       PTSUNNY   99  57  25 NE5       29.88F HX  97
MOUNTAIN HOME  MOSUNNY  106  46  13 NW13      29.87F HX 102
$$

IDZ016-017-300000-
SOUTHCENTRAL IDAHO


CITY           SKY/WX    TMP DP  RH WIND       PRES   REMARKS
BURLEY         PTSUNNY   90  44  20 S26G36    29.99F HAZE
JEROME         MOSUNNY   92  59  33 S9        30.01S HX  91
TWIN FALLS     PTSUNNY   92  55  28 E6        29.99F HX  90
$$

IDZ019>023-300000-
SOUTHEAST IDAHO


CITY           SKY/WX    TMP DP  RH WIND       PRES   REMARKS
IDAHO FALLS    MOSUNNY   99  43  14 CALM      30.04F HX  95
POCATELLO      MOSUNNY   99  56  23 NW10      30.02F HX  97
REXBURG        PTSUNNY   96  47  18 VRB6      30.06F HX  92
$$

IDZ006-010-011-018-031-032-300000-
CENTRAL IDAHO MOUNTAINS


CITY           SKY/WX    TMP DP  RH WIND       PRES   REMARKS
MCCALL         MOSUNNY   92  48  22 VRB3G17   30.08F
HAILEY         MOSUNNY   79  50  36 S12       30.10F
STANLEY          N/A     89  42  19 CALM      30.19F
SALMON         CLOUDY    79  61  53 NE3       29.99F
CHALLIS        LGT RAIN  81  54  39 SE8       30.09S
$$

IDZ002-004-006-007-026-300000-
NORTHERN IDAHO


CITY           SKY/WX    TMP DP  RH WIND       PRES   REMARKS
LEWISTON       PTSUNNY   96  58  27 N12       29.88S HX  95
LOWELL           N/A     97  65  34 CALM      29.81F HX  99
COEUR D`ALENE  CLOUDY    88  61  40 N7        29.96R
MULLAN PASS    PTSUNNY   78  55  44 CALM      30.22F
$$



USA.gov is the U.S. government's official web portal to all federal, state and local government web resources and services.